C/2020 J1 ( SONEAR )

Japanese version
Home page
Updated on May 26, 2021

---------------------------------------------------------------------

* Profile

Discovery Date May 1, 2020
Magnitude 17.0 mag
Discoverer Southern Observatory for Near Earth Research (SONEAR) at Oliveira, Brazil

* Pictures

* Orbital Elements

Epoch 2021 Apr. 16.0 TT = JDT 2459320.5
T 2021 Apr. 18.56177 TT                                 Rudenko
q   3.3551329            (2000.0)            P               Q
z  -0.0000680      Peri.  341.74617     -0.47272929     -0.76102881
 +/-0.0000015      Node   226.58200     -0.71295059     +0.03400862
e   1.0002282      Incl.  142.29336     -0.51790779     +0.64782603
From 254 observations 2020 May 1-2021 May 2, mean residual 0".5.

* Finding Charts

* Magnitudes Graph

        m1 = 3.2 + 5 log d + 15.0 log r

---------------------------------------------------------------------

The orbital elements are published on M.P.E.C. 2021-J28.
The charts are made with StellaNavigator Ver.10 (AstroArts).
The magnitudes graphs are made with Comet for Windows.

---------------------------------------------------------------------

Copyright(C) Seiichi Yoshida (comet@aerith.net). All rights reserved.